Location: Bühlhof
(48.7849°N, 8.6361°E)
Time: 06:11:00
(UTC+00:00)

Landsat 7 - Pass Details

Date: 19 January 2026
Orbit: 680 x 682 km, 97.9° (Epoch: 18 February)

Event Time Altitude Azimuth Distance (km) Brightness Sun altitude
Rises 16:51:51 0° 167° (SSE) 3,032 7.2 -8.1°
Reaches altitude 10° 16:54:04 10° 168° (SSE) 2,121 6.4 -8.4°
Maximum altitude 16:58:43 82° 256° (WSW) 697 3.9 -9.2°
Drops below altitude 10° 17:03:25 10° 345° (NNW) 2,136 6.3 -9.9°
Sets 17:05:40 0° 346° (NNW) 3,056 7.1 -10.2°
